Dewpoint
65 69 72 73 73 73 71 74 74 73 73 74 73 73 73 73 73 73 72 72 71 69 70 70 70 69 68 68 68 68 67 67 68 68 70 71 70 70 70 71 68 66 71
67 68 72 73 73 73 73 74 73 73 73 74 73 73 73 73 73 72 71 71 70 70 70 70 69 68 68 68 66 65 64 63 64 65 67 71 71 70 70 71 70 69 71
67 70 70 72 73 73 74 74 74 74 74 74 73 73 73 73 72 71 71 71 71 71 69 68 67 67 67 65 63 61 60 60 61 63 67 67 67 70 70 71 70 71 71
67 68 70 72 72 73 73 73 73 74 74 73 73 73 73 72 71 71 72 71 71 70 67 67 67 67 64 62 59 58 58 59 61 64 64 64 65 70 69 70 70 70 70
65 66 70 71 72 72 73 73 73 73 73 72 72 73 72 72 71 71 70 70 70 70 67 68 66 63 61 61 61 61 61 62 64 66 66 67 68 68 69 69 68 68 68
65 64 70 71 71 72 72 73 73 72 72 71 72 72 72 71 71 70 70 70 70 69 68 66 63 61 61 63 62 62 62 63 63 64 65 67 67 68 67 66 66 66 66
66 69 70 70 71 72 72 73 72 72 71 71 71 71 71 71 71 70 69 69 68 67 65 62 60 60 61 62 61 61 62 63 61 63 64 65 65 67 66 65 64 64 63
68 70 70 70 71 71 72 72 71 71 71 71 71 71 71 70 69 69 68 67 66 64 63 61 60 61 61 61 60 60 61 62 61 62 64 65 66 66 65 64 63 62 62
69 70 70 70 70 70 70 70 69 70 70 70 70 70 69 68 67 67 65 65 64 63 61 60 61 61 59 60 59 59 59 63 58 60 61 63 65 64 64 63 62 61 61
69 70 70 70 70 71 70 68 68 69 69 69 69 68 66 66 65 64 64 64 63 62 61 60 60 59 59 58 58 59 61 60 54 57 61 61 61 61 60 60 59 58 58
66 68 69 69 70 70 70 69 68 69 68 68 67 65 64 62 61 61 62 63 63 62 60 60 59 59 58 57 56 59 61 59 58 59 59 61 60 59 59 59 59 59 58
65 66 67 67 67 69 68 69 69 68 68 67 65 64 63 62 61 60 61 62 61 61 59 59 58 58 55 47 51 57 56 56 56 58 59 60 59 58 56 55 55 55 56
64 66 66 68 67 68 69 69 69 68 67 66 64 64 62 61 59 58 59 58 57 58 55 55 55 52 48 48 52 56 55 54 54 55 58 60 58 57 55 54 54 53 53
63 65 65 67 68 69 68 67 66 65 64 64 63 63 60 60 59 58 55 55 55 55 53 51 50 53 52 55 53 55 54 53 52 52 55 58 57 57 57 55 54 55 54
62 63 65 67 68 68 67 65 64 63 63 63 63 62 61 59 59 58 55 54 54 54 52 52 53 53 53 52 52 55 53 51 51 50 51 55 55 55 55 55 55 55 55
62 63 65 67 68 67 65 65 64 62 61 61 61 61 61 59 59 58 57 56 55 53 52 53 53 53 53 52 52 52 52 51 50 49 49 51 53 53 55 57 57 55 55
62 63 65 67 67 66 64 63 63 62 59 59 59 59 61 60 60 57 56 55 55 55 54 54 55 53 52 50 48 48 48 48 48 48 47 47 48 51 52 53 54 55 54
57 63 64 65 64 65 64 63 61 61 59 58 57 57 58 57 58 57 56 55 53 53 52 52 52 50 49 48 46 45 45 45 44 44 44 44 44 45 48 50 52 53 53
48 63 64 64 64 63 63 62 61 61 60 59 57 57 58 56 55 52 52 51 51 49 48 50 50 48 46 46 44 44 43 43 42 41 42 43 44 43 44 47 48 49 50
58 63 63 62 62 61 61 60 60 59 57 55 55 55 54 53 51 50 49 49 50 49 49 49 49 48 45 43 41 42 42 42 42 42 41 40 43 42 42 41 41 43 47
59 62 62 61 60 59 57 55 55 56 56 55 54 54 53 52 51 50 49 50 48 47 48 50 48 46 44 43 41 41 42 42 41 41 41 41 41 41 43 41 40 40 40
58 60 62 61 59 58 57 56 56 55 55 54 53 52 52 51 51 49 49 49 48 46 49 49 47 46 43 43 40 39 37 39 39 40 41 40 40 40 39 39 39 39 38
55 60 61 61 59 58 56 55 56 56 56 55 52 51 52 51 51 49 50 50 48 46 48 48 48 44 42 43 41 41 37 36 37 39 40 39 39 39 38 38 38 37 37
52 61 61 61 59 58 56 55 54 55 53 53 52 53 52 51 50 50 50 50 48 47 48 48 47 45 42 41 41 43 44 38 36 35 37 39 40 38 38 38 37 37 35
46 49 51 60 59 58 56 54 54 54 55 54 54 52 52 51 52 50 49 50 47 47 49 49 47 45 43 42 42 43 43 40 38 35 34 35 37 37 38 38 38 36 35
46 48 50 52 58 58 57 55 54 53 53 53 53 51 51 51 51 50 49 49 48 46 49 49 48 46 44 43 45 44 44 41 37 36 35 34 33 34 35 36 37 36 34
Lifted_Index
-5 -5 -5 -6 -6 -6 -6 -7 -7 -7 -6 -6 -6 -6 -7 -7 -6 -6 -6 -5 -4 -4 -4 -4 -3 -3 -3 -3 -2 -2 -1 -1 -1 -2 -4 -5 -5 -4 -4 -3 -3 -3 -4
-5 -5 -5 -6 -6 -6 -7 -7 -7 -7 -7 -7 -7 -7 -7 -6 -6 -6 -5 -5 -5 -4 -4 -4 -3 -3 -2 -2 -1 -1 -0 0 0 -1 -3 -4 -5 -4 -4 -4 -3 -4 -4
-5 -5 -6 -6 -6 -7 -7 -7 -7 -7 -7 -7 -7 -7 -7 -6 -6 -6 -5 -5 -5 -5 -4 -3 -3 -2 -2 -1 0 0 1 1 1 -0 -3 -4 -5 -5 -4 -4 -4 -4 -4
-5 -5 -6 -6 -6 -7 -7 -7 -7 -7 -7 -7 -7 -7 -7 -6 -6 -6 -6 -5 -5 -4 -4 -3 -3 -2 -0 1 1 1 1 1 -0 -2 -3 -4 -5 -5 -5 -4 -4 -4 -4
-5 -5 -5 -6 -6 -6 -7 -7 -7 -7 -7 -7 -7 -7 -7 -6 -6 -6 -5 -5 -5 -4 -4 -3 -2 -1 1 1 2 2 2 0 -2 -3 -4 -4 -5 -5 -4 -4 -3 -3 -3
-4 -4 -5 -5 -5 -6 -6 -7 -7 -7 -7 -7 -7 -7 -7 -6 -6 -5 -5 -5 -5 -4 -3 -2 -0 1 1 1 2 2 1 -0 -2 -3 -4 -4 -4 -4 -4 -3 -2 -2 -2
-4 -4 -4 -4 -5 -5 -6 -6 -6 -6 -6 -6 -6 -6 -6 -6 -5 -5 -4 -4 -4 -3 -2 -0 1 1 1 1 2 2 1 -0 -2 -2 -2 -3 -3 -3 -3 -2 -2 -2 -2
-5 -5 -4 -4 -4 -5 -5 -6 -6 -6 -5 -5 -5 -5 -5 -5 -4 -4 -3 -3 -3 -2 -1 1 2 2 2 2 3 3 2 0 -1 -1 -1 -1 -2 -2 -2 -2 -2 -2 -1
-5 -5 -5 -4 -4 -4 -5 -5 -5 -5 -5 -5 -5 -4 -4 -4 -3 -3 -2 -2 -1 -1 0 1 2 2 3 3 3 3 2 1 0 -0 -0 -0 -0 -0 -0 -0 -0 -1 -0
-5 -5 -5 -5 -5 -5 -4 -4 -4 -4 -4 -4 -4 -4 -3 -3 -2 -2 -2 -1 -1 -0 1 2 3 3 4 4 4 3 2 1 1 1 1 1 1 2 2 2 2 2 2
-4 -4 -5 -5 -5 -5 -4 -4 -4 -4 -4 -4 -3 -3 -3 -2 -2 -2 -1 -1 -1 0 1 3 3 4 5 5 5 3 2 1 1 1 2 2 2 3 4 4 4 4 4
-3 -4 -4 -4 -4 -4 -4 -4 -4 -4 -3 -3 -3 -3 -3 -2 -2 -1 -1 -1 -1 1 2 4 4 5 6 5 4 3 1 1 1 2 2 2 3 4 5 6 6 6 6
-3 -3 -4 -4 -4 -4 -4 -4 -4 -4 -4 -3 -3 -3 -2 -2 -2 -1 -1 -0 0 1 4 5 5 5 5 5 4 3 2 2 2 3 3 3 3 4 5 6 7 7 7
-4 -4 -4 -4 -4 -4 -4 -4 -3 -3 -3 -3 -3 -3 -2 -2 -2 -1 -0 0 1 3 5 6 6 5 4 4 3 3 3 3 3 3 4 4 4 5 5 6 7 7 7
-4 -4 -4 -5 -5 -4 -4 -3 -3 -3 -3 -3 -3 -3 -2 -2 -2 -1 -0 0 1 4 5 6 5 5 4 4 4 3 3 3 3 4 4 5 6 6 6 6 6 6 7
-4 -4 -5 -5 -5 -5 -4 -4 -3 -3 -3 -3 -3 -3 -2 -2 -2 -1 -0 -0 1 3 5 6 5 5 4 4 4 4 4 4 4 4 5 6 7 7 7 6 6 6 7
-4 -5 -5 -5 -5 -5 -5 -4 -4 -3 -3 -3 -3 -3 -2 -1 -1 -1 -1 -1 1 3 5 5 5 5 5 5 5 5 5 6 6 6 6 7 8 9 8 8 7 7 7
-5 -5 -5 -5 -5 -5 -5 -4 -4 -4 -3 -3 -3 -3 -2 -1 -1 -1 -1 -0 2 4 5 5 5 5 5 6 6 6 7 8 8 9 9 10 10 11 10 10 9 9 9
-5 -5 -5 -5 -5 -5 -5 -4 -4 -4 -4 -3 -3 -3 -2 -1 -1 -1 -0 2 3 4 5 6 5 6 6 7 8 8 9 10 10 10 11 11 11 12 12 11 11 10 10
-6 -6 -6 -5 -5 -5 -5 -5 -4 -4 -4 -4 -4 -3 -2 -2 -2 -0 1 3 3 4 5 6 6 7 8 9 9 10 10 11 11 11 11 11 11 12 12 12 12 12 12
-6 -6 -6 -5 -5 -5 -5 -5 -4 -4 -4 -4 -4 -3 -3 -2 -2 0 2 3 4 5 6 6 7 8 8 9 10 9 9 10 11 11 12 12 12 12 12 13 13 13 14
-6 -6 -6 -5 -5 -4 -4 -4 -4 -4 -4 -4 -4 -3 -3 -2 -1 0 2 2 4 5 6 7 7 8 9 9 9 8 7 8 10 11 12 12 12 12 13 13 14 15 15
-5 -6 -6 -5 -5 -4 -3 -3 -3 -4 -4 -4 -4 -3 -3 -2 -1 0 2 3 4 6 7 7 8 8 9 10 9 7 6 7 9 10 11 12 13 13 13 14 14 15 15
-3 -4 -5 -5 -5 -4 -3 -3 -3 -3 -3 -3 -3 -3 -3 -2 -1 0 2 3 5 6 6 7 7 8 9 10 9 7 6 7 7 8 10 11 12 13 13 14 15 15 15
0 -1 -2 -3 -4 -4 -4 -3 -2 -2 -2 -3 -3 -3 -2 -2 -1 0 2 4 5 6 6 6 7 8 9 9 9 8 7 7 7 7 8 10 11 12 13 14 14 15 15
2 1 0 -2 -4 -5 -4 -3 -2 -1 -2 -2 -2 -2 -2 -2 -1 1 3 4 5 6 6 6 7 8 9 9 8 7 7 7 7 7 7 9 10 12 13 14 14 15 15